SCP
0 0 0 0 0 0 0 0 0 0 0 0 0 0 0 0 0 0 0 0 0 0 0 0 0 0 0 0 0 0 0 0 0 0 0 0 0 0 0 0 0 0 0
0 0 0 0 0 0 0 0 0 0 0 0 0 0 0 0 0 0 0 0 0 0 0 0 0 0 0 0 0 0 0 0 0 0 0 0 0 0 0 0 0 0 0
0 0 0 0 0 0 0 0 0 0 0 0 0 0 0 0 0 0 0 0 0 0 0 0 0 0 0 0 0 0 0 0 0 0 0 0 0 0 0 0 0 0 0
0 0 0 0 0 0 0 0 0 0 0 0 0 0 0 0 0 0 0 0 0 0 0 0 0 0 0 0 0 0 0 0 0 0 0 0 0 0 0 0 0 0 0
0 0 0 0 0 0 0 0 0 0 0 0 0 0 0 0 0 0 0 0 0 0 0 0 0 0 0 0 0 0 0 0 0 0 0 0 0 0 0 0 0 0 0
0 0 0 0 0 0 0 0 0 0 0 0 0 0 0 0 0 0 0 0 0 0 0 0 0 0 0 0 0 0 0 0 0 0 0 0 0 0 0 0 0 0 0
0 0 0 0 0 0 0 0 0 0 0 0 0 0 0 0 0 0 0 0 0 0 0 0 0 0 0 0 0 0 0 0 0 0 0 0 0 0 0 0 0 0 0
0 0 0 0 0 0 0 0 0 0 0 0 0 0 0 0 0 0 0 0 0 0 0 0 0 0 0 0 0 0 0 0 0 0 0 0 0 0 0 0 0 0 0
0 0 0 0 0 0 0 0 0 0 0 0 0 0 0 0 0 0 0 0 0 0 0 0 0 0 0 0 0 0 0 0 0 0 0 0 0 0 0 0 0 0 0
0 0 0 0 0 0 0 0 0 0 0 0 0 0 0 0 0 0 0 0 0 0 0 0 0 0 0 0 0 0 0 0 0 0 0 0 0 0 0 0 0 0 0
0 0 0 0 0 0 0 0 0 0 0 0 0 0 0 0 0 0 0 0 0 0 0 0 0 0 0 0 0 0 0 0 0 0 0 0 0 -0 -0 -0 -0 0 0
0 0 0 0 0 0 0 0 0 0 0 0 0 0 0 0 0 0 0 0 0 0 0 0 0 0 0 0 0 0 0 0 0 0 0 0 -0 -0 -0 -0 -0 -0 0
0 0 0 0 0 0 0 0 0 0 0 0 0 0 0 0 0 0 0 0 0 0 0 0 0 0 0 0 0 0 0 0 0 0 0 -0 -0 -0 -0 -0 -0 -0 0
0 0 0 0 0 0 0 0 0 0 0 0 0 0 0 0 0 0 0 0 0 0 0 0 0 0 0 0 0 0 0 0 0 0 0 0 -0 -0 -0 -0 -0 0 0
0 0 0 0 0 0 0 0 0 0 0 0 0 0 0 0 0 0 0 0 0 0 0 0 0 0 0 0 0 0 0 0 0 0 0 0 0 0 0 0 0 0 0
0 0 0 0 0 0 0 0 0 0 0 0 0 0 0 0 0 0 0 0 0 0 0 0 0 0 0 0 0 0 0 0 0 0 0 0 0 0 0 0 0 0 0
0 0 0 0 0 0 0 0 0 0 0 0 0 0 0 0 0 0 0 0 0 0 0 0 0 0 0 0 0 0 0 0 0 0 0 0 0 0 0 0 0 0 0
0 0 0 0 0 0 0 0 0 0 0 0 0 0 0 0 0 0 0 0 0 0 0 0 0 0 0 0 0 0 0 0 0 0 0 0 0 0 0 0 0 0 0
0 0 0 0 0 0 0 0 0 0 0 0 0 0 0 0 0 0 0 0 0 0 0 0 0 0 0 0 0 0 0 0 0 0 0 0 0 0 0 0 0 0 0
0 0 0 0 0 0 0 0 0 0 0 0 0 0 0 0 0 0 0 0 0 0 0 0 0 0 0 0 0 0 0 0 0 0 0 0 0 0 0 0 0 0 0
0 0 0 0 0 0 0 0 0 0 0 0 0 0 0 0 0 0 0 0 0 0 0 0 0 0 0 0 0 0 0 0 0 0 0 0 0 0 0 0 0 0 0
0 0 0 0 0 0 0 0 0 0 0 0 0 0 0 0 0 0 0 0 0 0 0 0 0 0 0 0 0 0 0 0 0 0 0 0 0 0 0 0 0 0 0
0 0 0 0 0 0 0 0 0 0 0 0 0 0 0 0 0 0 0 0 0 0 0 0 0 0 0 0 0 0 0 0 0 0 0 0 0 0 0 0 0 0 0
0 0 0 0 0 0 0 0 0 0 0 0 0 0 0 0 0 0 0 0 0 0 0 0 0 0 0 -0 0 0 0 0 0 0 0 0 0 0 0 0 0 0 0
0 0 0 0 0 0 0 0 0 0 0 0 0 0 0 0 0 0 0 0 0 0 0 0 0 0 0 0 0 0 0 0 0 0 0 0 0 0 0 0 0 0 0
0 0 0 0 0 0 0 0 0 0 0 0 0 0 0 0 0 0 0 0 0 0 0 0 0 0 0 0 0 0 0 0 0 0 0 0 0 0 0 0 0 0 0
Wind_Speed
8 8 7 7 6 6 5 6 6 5 5 5 5 5 6 7 7 6 7 7 7 7 6 7 7 6 4 4 4 4 4 4 4 3 2 2 4 8 8 6 6 6 8
9 8 8 8 7 7 8 8 7 6 6 5 5 5 5 5 6 6 7 7 7 8 8 7 8 6 6 5 4 4 4 4 4 4 3 3 4 8 9 8 6 6 7
9 9 10 9 8 9 10 10 8 7 7 6 5 6 6 6 6 6 6 6 6 7 7 7 8 7 7 5 5 5 4 4 5 5 4 3 3 6 9 8 8 7 8
10 10 10 11 12 13 11 9 8 7 7 8 7 7 7 7 8 8 7 6 6 5 6 7 8 8 8 7 5 5 5 5 5 5 5 6 5 7 8 9 8 6 6
10 11 13 14 13 10 9 9 9 8 9 8 8 7 7 7 8 8 8 7 7 6 6 6 8 10 11 9 6 5 5 4 4 5 6 6 7 9 8 6 10 8 7
10 11 12 12 12 11 11 10 9 9 8 8 9 9 8 8 11 13 9 7 7 7 7 7 7 9 12 13 11 9 7 5 5 5 5 9 9 8 8 10 11 11 6
9 10 10 11 12 12 12 11 10 10 9 8 9 8 9 11 15 16 15 8 7 6 7 6 6 6 9 7 8 7 5 6 5 5 8 9 10 10 11 11 8 6 5
7 8 8 6 7 8 8 8 8 7 6 6 7 6 6 10 15 16 17 9 5 5 6 7 8 8 9 10 7 5 4 4 5 4 6 8 10 11 10 10 9 8 7
6 5 5 6 6 6 6 6 6 5 6 6 5 6 6 10 14 16 14 5 5 5 4 6 9 11 14 14 9 7 6 4 7 11 11 13 16 16 13 10 9 9 8
9 9 7 6 6 7 7 7 5 5 6 6 6 6 7 9 13 16 14 5 5 4 3 5 10 13 16 16 10 9 9 6 7 9 10 12 12 12 11 8 9 10 9
13 12 11 9 8 8 8 7 6 6 6 6 7 7 7 9 12 16 15 6 5 4 3 2 3 11 15 16 12 8 10 10 8 8 7 7 6 5 5 5 6 9 8
14 14 13 11 10 10 7 6 6 6 7 6 6 7 7 8 10 13 16 12 8 5 4 2 0 4 8 11 9 12 15 11 8 7 7 6 5 5 4 6 7 6 4
13 14 13 12 10 8 7 7 7 6 6 6 6 7 7 5 7 13 14 12 11 5 3 4 5 7 4 4 8 17 15 9 8 8 7 5 4 4 5 5 7 6 5
13 13 11 10 9 8 6 6 5 5 5 5 6 6 5 4 4 5 5 6 9 6 4 5 7 9 5 0 6 11 9 9 9 8 6 4 4 4 5 6 6 6 5
13 11 10 8 8 7 6 6 6 6 7 7 6 5 5 5 7 11 9 8 7 6 5 3 2 4 3 1 4 6 6 8 8 6 7 6 5 5 4 4 4 4 5
11 9 7 6 5 4 4 6 9 11 13 14 12 8 5 4 6 12 12 11 11 11 6 4 4 4 4 3 5 5 5 7 7 8 9 7 6 6 5 3 3 5 6
11 9 6 5 4 3 4 4 4 4 4 6 7 5 2 6 10 12 12 11 10 10 4 5 5 5 4 3 4 5 5 6 7 9 9 8 7 6 6 5 4 4 4
10 9 6 3 2 3 3 3 3 2 1 1 2 5 7 9 10 11 12 9 5 3 3 5 6 6 5 4 4 4 6 7 7 8 9 8 7 6 6 6 5 5 4
7 4 3 3 3 2 2 2 2 2 1 2 3 4 7 8 8 8 9 4 5 4 3 3 4 5 5 4 5 5 7 7 8 7 7 8 7 6 6 6 6 8 5
5 8 5 3 2 2 2 1 2 1 1 3 3 4 4 4 4 5 3 2 3 3 2 2 1 3 4 5 6 6 7 7 8 6 6 6 6 7 7 8 7 7 4
5 5 7 4 2 2 1 1 1 0 2 3 3 4 6 4 5 6 5 3 3 3 2 2 3 4 5 5 6 8 9 7 7 6 6 6 7 6 6 7 8 7 6
6 4 3 3 2 2 2 1 1 1 3 4 3 3 6 3 4 5 4 4 3 3 3 4 4 5 7 7 7 7 7 7 6 6 6 6 6 6 6 6 6 6 7
5 5 4 3 2 2 2 2 1 0 2 4 4 4 3 3 4 4 4 3 2 2 2 3 3 4 5 6 7 8 8 8 7 8 7 7 6 6 6 6 8 7 7
5 4 4 4 3 2 2 2 2 3 4 4 4 4 3 3 3 3 2 2 2 1 1 1 2 6 8 7 6 6 7 8 8 8 10 8 7 6 6 7 7 8 8
5 4 3 2 2 2 2 3 4 4 4 3 3 3 3 3 3 3 2 2 2 1 2 3 3 4 8 10 9 7 10 12 9 8 8 8 8 8 7 7 6 6 5
5 4 3 3 2 1 0 2 2 2 2 2 2 2 2 3 3 3 2 2 2 2 3 3 3 3 7 8 10 12 12 10 10 10 7 7 8 7 7 6 7 6 6
Wind_Direction
249 248 251 253 254 259 264 270 273 275 275 277 278 281 291 293 281 252 232 221 222 228 225 227 237 239 234 226 210 196 196 199 232 246 214 141 126 127 117 112 111 107 109
248 250 252 257 262 267 267 266 264 267 269 267 270 277 283 292 302 291 268 247 229 228 228 226 236 239 229 220 208 200 196 197 209 229 193 152 131 138 124 115 105 104 105
252 244 247 251 253 256 259 263 262 259 264 267 259 260 267 274 280 283 283 273 248 237 232 226 230 231 233 224 211 204 206 209 211 215 183 145 130 138 123 109 106 103 103
266 253 244 243 243 246 252 256 260 261 264 267 259 247 248 257 265 266 264 265 259 252 245 237 232 225 225 219 208 209 211 214 211 203 175 154 145 140 130 128 121 113 110
258 251 245 244 243 242 245 250 253 252 253 257 263 256 245 246 253 252 248 248 247 251 254 247 242 234 223 204 195 203 202 197 187 181 167 151 150 152 144 137 132 120 104
257 251 247 243 239 236 237 241 246 249 251 253 256 257 256 256 255 252 245 243 247 249 256 255 246 231 210 199 196 194 189 176 172 168 162 156 155 151 138 139 137 135 131
266 262 254 244 235 230 227 223 226 229 233 240 247 250 254 255 252 250 247 237 240 248 254 251 240 214 188 178 178 169 159 145 153 164 158 152 153 151 141 137 136 127 116
283 285 281 265 247 235 221 214 212 204 201 212 224 234 255 260 251 244 243 236 239 252 259 244 219 202 193 174 159 147 134 123 120 116 128 130 137 137 131 131 131 114 104
302 299 299 302 290 267 243 230 220 212 209 212 216 226 243 258 252 240 234 220 228 245 265 258 224 203 192 171 153 146 132 119 106 108 111 119 125 131 137 136 137 137 134
292 283 276 272 271 270 263 250 233 220 224 230 236 234 241 250 248 235 221 203 215 231 255 269 230 204 183 170 159 155 149 142 125 110 109 117 128 137 145 149 152 150 144
295 289 282 274 267 261 254 246 240 237 237 236 240 243 245 246 245 231 215 197 197 204 217 252 240 202 181 174 162 162 159 145 129 120 116 117 124 142 164 167 164 159 155
297 293 288 281 276 276 259 249 243 239 238 234 235 249 252 247 238 229 216 205 185 179 191 197 154 166 181 176 166 154 146 136 128 125 124 129 135 141 150 156 159 161 164
298 295 291 286 278 271 266 262 254 237 227 227 229 244 251 241 233 227 215 202 185 172 164 152 121 118 138 178 175 154 147 141 140 138 138 137 128 126 118 110 109 108 85
294 294 291 285 277 270 265 259 253 239 231 232 232 237 242 234 216 198 191 184 180 170 152 139 118 115 109 331 172 164 156 154 151 146 139 127 114 110 119 122 123 118 99
290 287 285 278 273 270 265 256 250 243 235 230 230 225 221 232 221 192 179 178 179 178 153 138 144 133 124 162 179 172 153 145 139 133 138 131 124 119 117 113 113 107 115
297 291 284 279 270 264 269 275 258 248 252 241 236 232 234 236 188 173 174 168 165 164 155 162 163 154 148 178 178 160 149 148 146 146 149 147 145 141 132 117 107 119 124
307 303 294 285 270 262 268 272 284 285 278 251 233 216 144 123 142 154 156 149 153 160 168 176 170 163 154 177 179 157 148 151 149 153 156 155 150 143 135 129 120 118 120
319 323 329 307 281 275 276 272 266 277 293 39 60 68 97 124 139 145 141 130 142 169 175 170 167 163 157 173 170 151 141 147 149 151 153 152 149 144 141 141 141 139 136
328 325 327 329 324 310 309 317 318 305 236 131 106 72 87 110 123 145 149 142 161 167 162 152 148 158 164 171 159 145 143 149 151 150 153 154 151 144 148 157 158 155 140
328 338 341 326 330 335 332 331 330 341 120 132 135 137 135 125 138 159 176 152 152 157 158 163 172 183 172 166 151 142 141 145 148 147 155 157 153 149 152 160 166 163 160
325 329 338 336 332 333 332 313 291 40 101 126 138 165 169 161 161 167 170 167 163 172 202 230 243 215 178 160 150 147 147 150 151 150 154 154 148 144 146 153 160 159 152
336 330 329 324 323 337 348 358 35 104 108 116 134 156 178 150 150 162 171 173 182 196 209 214 224 199 174 163 153 148 148 149 152 153 152 148 145 141 140 142 147 151 152
339 343 337 326 305 303 315 301 281 198 128 131 142 145 150 134 140 152 158 167 182 202 215 206 175 152 151 151 151 150 151 155 159 156 149 145 143 145 147 146 148 150 157
301 313 331 340 350 2 16 25 40 66 93 112 125 130 131 126 127 132 147 178 191 212 202 149 117 130 140 141 140 141 144 147 148 149 145 144 149 155 155 152 152 160 168
283 278 282 306 340 6 35 50 54 58 69 93 111 116 119 120 125 140 168 183 180 164 75 68 75 114 142 146 144 140 143 144 144 143 139 140 149 156 160 161 160 161 167
311 285 263 245 245 251 161 97 80 73 70 91 119 129 129 132 145 159 169 160 142 82 57 55 73 113 143 150 150 145 147 151 152 152 145 140 144 155 163 169 174 177 183